Home   Weather   Firozpur   Past weeks

Flag for India Past Weather in Firozpur, Punjab, India — Yesterday and Last 2 Weeks

77 °F


Feels Like: 79 °F
Forecast: 63 / 88 °F
Wind: No wind

Location: Lahore Airport

Current Time: Oct 26, 2016 at 11:18:56 AM

Latest Report: Oct 26, 2016 at 10:25 AM

Visibility: 2 mi

Pressure: 29.95 "Hg

Humidity: 54%

Dew Point: 59 °F

Location of FirozpurLocation

Past Weather in Firozpur — Graph


Firozpur Temperature Yesterday

Maximum temperature yesterday: 90 °F (at 2:25 PM)
Minimum temperature yesterday: 64 °F (at 5:25 AM)
Average temperature yesterday: 76 °F

High & Low Weather Summary for the Past Weeks

High97 °F (Oct 12, 3:25 PM)88% (Oct 16, 6:25 AM)29.95 "Hg (Oct 16, 6:25 AM)
Low64 °F (Oct 19, 6:25 AM)20% (Oct 13, 3:25 PM)29.68 "Hg (Oct 12, 3:25 PM)
Average80 °F56%29.81 "Hg
* Reported Oct 11 9:55 AM — Oct 26 9:55 AM, Firozpur, Weather by CustomWeather, © 2016

Note: Actual official high and low records may vary slightly from our data, if they occured in-between our weather recording intervals... More about our weather records


Firozpur Weather History for the Previous 24 Hours

Scroll right to see more
Time TempWeatherWind HumidityBarometerVisibility
9:55 AM
Wed, Oct 26
75 °FClear.No wind57%29.95 "Hg1 mi
9:25 AM73 °FClear.No wind61%29.95 "Hg1 mi
8:55 AM70 °FClear.No wind73%29.92 "Hg1 mi
8:30 AM68 °FClear.No wind78%29.92 "Hg1 mi
8:00 AM68 °FFog.No wind78%29.89 "Hg1 mi
7:25 AM66 °FFog.No wind83%29.89 "Hg1 mi
6:55 AM64 °FFog.No wind88%29.89 "Hg1 mi
6:25 AM64 °FFog.No wind88%29.86 "Hg2 mi
5:55 AM66 °FClear.No wind83%29.86 "Hg2 mi
5:25 AM66 °FClear.No wind83%29.86 "Hg2 mi
4:55 AM66 °FClear.No wind88%29.86 "Hg2 mi
4:25 AM66 °FClear.No wind88%29.83 "Hg2 mi
3:25 AM68 °FClear.No wind83%29.83 "Hg2 mi
2:55 AM68 °FClear.5 mph83%29.83 "Hg2 mi
2:25 AM70 °FClear.No wind78%29.83 "Hg2 mi
2:00 AM72 °FClear.No wind73%29.83 "Hg2 mi
1:30 AM72 °FClear.No wind73%29.83 "Hg2 mi
1:00 AM72 °FClear.No wind69%29.83 "Hg2 mi
12:30 AM72 °FClear.No wind69%29.83 "Hg2 mi
12:00 AM73 °FClear.No wind69%29.83 "Hg2 mi
11:30 PM
Tue, Oct 25
73 °FClear.No wind69%29.83 "Hg2 mi
10:55 PM75 °FClear.No wind61%29.86 "Hg2 mi
10:30 PM75 °FClear.No wind61%29.83 "Hg2 mi
9:25 PM77 °FClear.No wind54%29.83 "Hg2 mi
8:55 PM79 °FClear.No wind51%29.83 "Hg2 mi
8:25 PM79 °FClear.3 mph51%29.83 "Hg2 mi
7:25 PM81 °FClear.No wind51%29.80 "Hg2 mi
6:55 PM82 °FHaze.No wind45%29.80 "Hg2 mi
6:25 PM84 °FHaze.No wind45%29.80 "Hg2 mi
5:25 PM86 °FHaze.3 mph35%29.77 "Hg2 mi
4:25 PM88 °FHaze.3 mph33%29.77 "Hg2 mi
3:25 PM90 °FHaze.6 mph31%29.80 "Hg2 mi
2:55 PM90 °FHaze.6 mph31%29.80 "Hg2 mi
2:25 PM90 °FHaze.3 mph31%29.80 "Hg2 mi
1:25 PM88 °FHaze.6 mph38%29.83 "Hg2 mi
1:00 PM86 °FHaze.No wind46%29.83 "Hg1 mi
12:25 PM84 °FHaze.3 mph48%29.86 "Hg1 mi
11:55 AM82 °FPassing clouds.3 mph51%29.86 "Hg1 mi
11:25 AM81 °FPassing clouds.No wind54%29.86 "Hg1 mi
Weather by CustomWeather, © 2016

See weather overviewHow to use our weather pages